Location: *
(50.3194°N, 7.1067°E)
Time: 18:30:02
(UTC+00:00)

SJ-6B - Pass Details

Date: 22 September 2019
Orbit: 509 x 583 km, 97.6° (Epoch: 21 October)

Event Time Altitude Azimuth Distance (km) Brightness Sun altitude
Exits shadow 19:46:38 11° 199° (SSW) 1,823 5.4 -21.7°
Maximum altitude 19:50:11 33° 263° (W) 970 4.5 -22.2°
Drops below altitude 10° 19:53:54 10° 329° (NNW) 1,877 6.4 -22.7°
Sets 19:56:12 0° 339° (NNW) 2,768 7.2 -23.0°
